{"data":{"norad_id":63675,"epoch":"2026-05-25T02:43:35.541120Z","epoch_age_seconds":61363,"freshness":"FRESH","line1":"1 63675U 25085M   26145.11360580  .00173900  00000+0  13249-2 0  9999","line2":"2 63675  43.0021 177.5507 0002135 249.4188 110.6450 15.70941563 62262","mean_motion":15.70941563,"eccentricity":0.0002135,"inclination_deg":43.0021,"raan_deg":177.5507,"arg_perigee_deg":249.4188,"mean_anomaly_deg":110.645,"bstar":0.0013249,"rev_number":6226,"period_min":91.66477187414,"perigee_km":354.76700917384,"apogee_km":357.64257311866,"semimajor_km":6734.3417911462,"source":"CELESTRAK","updated_at":"2026-05-25T13:38:20.092644Z"}}